PROFILE

 METAR AND TAF INFORMATION
ADDS - METARS form results

(0529 UTC 26 January 2021)
http://aviationweather.gov/metar/data/
 
LFMT 260500Z AUTO 30009KT CAVOK 03/M06 Q1021 NOSIG
LFMT 260430Z AUTO 31010KT CAVOK 03/M05 Q1020 NOSIG
TAF LFMT 260200Z 2603/2703 33010KT CAVOK BECMG 2612/2614 VRB03KT 

 AIRPORT MAP

 RUNWAY INFORMATION
Runway 12L Runway length 8530 ft Runway width 164 ft
Runway elevation 17 ft Runway displaced threshold 0 ft Runway heading 124
Runway 30R Runway length 8530 ft Runway width 164 ft
Runway elevation 6 ft Runway displaced threshold 0 ft Runway heading 304
Runway 12R Runway length 3609 ft Runway width 98 ft
Runway elevation 10 ft Runway displaced threshold 328 ft Runway heading 124
Runway 30L Runway length 3609 ft Runway width 98 ft
Runway elevation 7 ft Runway displaced threshold 0 ft Runway heading 304

 AIRPORT FREQUENCIES
Type APP Name MONTPELLIE Frequency 120.375 MHZ
Type ATIS Name MONTPELLIE Frequency 124.125 MHZ
Type GND Name MONTPELLIE Frequency 121.95 MHZ
Type TWR Name MONTPELLIE Frequency 118.2 MHZ
Type TWR Name MONTPELLIE Frequency 118.775 MHZ

 AIRPORT NEAR NAVIGATION AIDS
Type VOR-DME Name Mediterranee Frequency 114450 KHZ